CW5709 Weather Reports


Display with metric or nautical units.
time (UTC)temp
F
wind
direction
speed
MPH
gust
MPH
rain 1hr
in
rain 24hr
in
rain mn
in
humidity
%
barometer
mb
20260504173020 58 0.0 0.0 0.00 0.00 0.00 75 1014.7
20260504171524 58 0.0 0.0 0.00 0.00 0.00 75 1014.9
20260504081520 55 0.0 0.0 0.00 0.00 0.00 82 1010.9
20260504050019 65 0.0 0.0 0.00 0.00 0.00 60 1009.0
20260504044525 67 0.0 0.0 0.00 0.00 0.00 58 1008.7
20260504043042 69 0.0 0.0 0.00 0.00 0.00 55 1008.5
20260504041535 72 0.0 0.0 0.00 0.00 0.00 52 1008.2
20260504040020 73 0.0 0.0 0.00 0.00 0.00 48 1008.0
20260504034523 74 0.0 0.0 0.00 0.00 0.00 48 1007.9
20260504033029 75 0.0 0.0 0.00 0.00 0.00 48 1007.8
20260504031509 77 0.0 0.0 0.00 0.00 0.00 46 1007.6
20260504030016 78 0.0 0.0 0.00 0.00 0.00 48 1007.6
20260504024518 79 0.0 0.0 0.00 0.00 0.00 44 1007.4
20260504023027 81 0.0 0.0 0.00 0.00 0.00 44 1007.5
20260504021506 82 0.0 0.0 0.00 0.00 0.00 40 1007.4
20260504020012 84 0.0 0.0 0.00 0.00 0.00 37 1007.5
20260504014516 86 0.0 0.0 0.00 0.00 0.00 33 1007.6
20260504013021 87 0.0 0.0 0.00 0.00 0.00 28 1007.5
20260504011526 88 0.0 0.0 0.00 0.00 0.00 23 1007.2
20260504010009 89 0.0 0.0 0.00 0.00 0.00 22 1007.2
20260504004511 89 0.0 0.0 0.00 0.00 0.00 22 1007.3
20260504003016 89 0.0 0.0 0.00 0.00 0.00 23 1007.4
20260504001522 89 0.0 0.0 0.00 0.00 0.00 24 1007.5
20260504000023 88 0.0 0.0 0.00 0.00 0.00 23 1007.5
20260503234509 89 0.0 0.0 0.00 0.00 0.00 24 1007.6
20260503233015 89 0.0 0.0 0.00 0.00 0.00 24 1007.8
20260503231520 89 0.0 0.0 0.00 0.00 0.00 25 1007.9
20260503230024 91 0.0 0.0 0.00 0.00 0.00 25 1008.1
20260503224527 92 0.0 0.0 0.00 0.00 0.00 25 1008.5
20260503223015 93 0.0 0.0 0.00 0.00 0.00 27 1008.6
20260503221519 92 0.0 0.0 0.00 0.00 0.00 31 1009.0
20260503220026 92 0.0 0.0 0.00 0.00 0.00 32 1009.1
20260503214506 93 0.0 0.0 0.00 0.00 0.00 32 1009.2
20260503213010 92 0.0 0.0 0.00 0.00 0.00 33 1009.4
20260503211515 91 0.0 0.0 0.00 0.00 0.00 37 1009.6
20260503210005 90 0.0 0.0 0.00 0.00 0.00 38 1009.6
20260503204512 89 0.0 0.0 0.00 0.00 0.00 37 1009.9
20260503203008 88 0.0 0.0 0.00 0.00 0.00 39 1010.2
20260503201513 87 0.0 0.0 0.00 0.00 0.00 39 1010.4
20260503200016 85 0.0 0.0 0.00 0.00 0.00 42 1010.6
20260503194504 83 0.0 0.0 0.00 0.00 0.00 46 1010.6
20260503193007 81 0.0 0.0 0.00 0.00 0.00 49 1010.7
20260503191527 78 0.0 0.0 0.00 0.00 0.00 54 1010.8
20260503190014 74 0.0 0.0 0.00 0.00 0.00 59 1011.0
20260503184519 71 0.0 0.0 0.00 0.00 0.00 63 1011.1
20260503183005 70 0.0 0.0 0.00 0.00 0.00 66 1011.2
20260503181508 68 0.0 0.0 0.00 0.00 0.00 70 1011.4
20260503180014 67 0.0 0.0 0.00 0.00 0.00 72 1011.5
20260503174516 65 0.0 0.0 0.00 0.00 0.00 76 1011.7